CGMAE CYKF-CYOW

Flight info

Callsign CGMAE
Flight time N/A
Altitude 17000
Route DAVSI T781 BOMET DCT MIVOK CAPTL5
Aircraft A21N/M-SDE2E3FGHIRWXY/LB1

Departure

Time 2026-05-06 01:38
Airport Region of Waterloo International Airport (CYKF)

Arrival

Time N/A
Airport Ottawa Macdonald-Cartier International Airport (CYOW)
Time Latitude Longitude Altitude Speed Heading
2026-05-06 00:58 43.45548 -80.38390 1036 ft 0 kts 226°
2026-05-06 01:22 43.45553 -80.38383 1027 ft 2 kts 225°
2026-05-06 01:22 43.45560 -80.38374 1036 ft 1 kts 225°
2026-05-06 01:22 43.45566 -80.38365 1036 ft 1 kts 224°
2026-05-06 01:23 43.45573 -80.38357 1036 ft 2 kts 222°
2026-05-06 01:23 43.45579 -80.38349 1036 ft 1 kts 221°
2026-05-06 01:23 43.45586 -80.38340 1036 ft 1 kts 247°
2026-05-06 01:23 43.45590 -80.38329 1036 ft 1 kts 274°
2026-05-06 01:24 43.45590 -80.38316 1036 ft 1 kts 301°
2026-05-06 01:24 43.45585 -80.38306 1036 ft 1 kts 308°
2026-05-06 01:24 43.45585 -80.38305 1036 ft 0 kts 308°
2026-05-06 01:27 43.45594 -80.38323 1036 ft 6 kts 305°
2026-05-06 01:27 43.45634 -80.38402 1036 ft 14 kts 305°
2026-05-06 01:28 43.45695 -80.38503 1037 ft 15 kts 311°
2026-05-06 01:28 43.45715 -80.38536 1037 ft 4 kts 307°
2026-05-06 01:28 43.45745 -80.38596 1037 ft 10 kts 301°
2026-05-06 01:28 43.45734 -80.38660 1036 ft 9 kts 251°
2026-05-06 01:29 43.45698 -80.38771 1035 ft 15 kts 244°
2026-05-06 01:29 43.45693 -80.38787 1035 ft 2 kts 245°
2026-05-06 01:29 43.45677 -80.38836 1034 ft 0 kts 246°
2026-05-06 01:29 43.45682 -80.38880 1034 ft 8 kts 303°
2026-05-06 01:30 43.45703 -80.38899 1034 ft 0 kts 333°
2026-05-06 01:35 43.45723 -80.38913 1034 ft 8 kts 334°
2026-05-06 01:36 43.45763 -80.38937 1035 ft 6 kts 337°
2026-05-06 01:36 43.45810 -80.38923 1036 ft 7 kts 46°
2026-05-06 01:36 43.45834 -80.38858 1037 ft 0 kts 62°
2026-05-06 01:38 43.45837 -80.38852 1037 ft 5 kts 62°
2026-05-06 01:38 43.45988 -80.38403 1038 ft 100 kts 64°
2026-05-06 01:38 43.46392 -80.37208 1158 ft 163 kts 65°
2026-05-06 01:38 43.46873 -80.35809 2107 ft 164 kts 65°
2026-05-06 01:39 43.47350 -80.34373 3072 ft 168 kts 65°
2026-05-06 01:39 43.47853 -80.32789 3750 ft 193 kts 65°
2026-05-06 01:39 43.48431 -80.30912 3962 ft 242 kts 65°
2026-05-06 01:39 43.49133 -80.28621 4105 ft 270 kts 65°
2026-05-06 01:40 43.49863 -80.26224 4706 ft 277 kts 63°
2026-05-06 01:40 43.50573 -80.23675 5887 ft 286 kts 72°
2026-05-06 01:40 43.51054 -80.20888 7054 ft 301 kts 79°
2026-05-06 01:40 43.51460 -80.18059 8173 ft 315 kts 80°
2026-05-06 01:41 43.51932 -80.15006 9322 ft 330 kts 77°
2026-05-06 01:41 43.52255 -80.13033 9901 ft 339 kts 78°